owner,sensor,date,latitude,longitude,vertical_datum,direction_of_sea_water_velocity,sea_water_speed,upward_sea_water_velocity,qcFlag 
ADCP,ioos:station:wmo:42890:1,2014-05-01T00:02:00Z,27.6250,-90.4410,15.2,266.0,20.7,-99999.0,'1111122,1111122,1199999999' 
ADCP,ioos:station:wmo:42890:1,2014-05-01T00:22:00Z,27.6250,-90.4410,15.2,262.0,20.8,-9999.0,'11111222,11111222,99999999' 
ADCP,ioos:station:wmo:42890:1,2014-05-01T00:42:00Z,27.6250,-90.4410,15.2,261.0,21.5,-9999.0,'11111222,11111222,99999999' 
ADCP,ioos:station:wmo:42890:1,2014-05-01T01:02:00Z,27.6250,-90.4410,15.2,260.0,21.5,-99999.0,'1111122,1111122,1199999999' 
ADCP,ioos:station:wmo:42890:1,2014-05-01T01:22:00Z,27.6250,-90.4410,15.2,259.0,22.5,-9999.0,'11111222,11111222,99999999' 
ADCP,ioos:station:wmo:42890:1,2014-05-01T01:42:00Z,27.6250,-90.4410,15.2,256.0,21.2,-9999.0,'11111222,11111222,99999999' 
ADCP,ioos:station:wmo:42890:1,2014-05-01T02:02:00Z,27.6250,-90.4410,15.2,256.0,14.6,-99999.0,'1111122,1111122,1199999999' 
ADCP,ioos:station:wmo:42890:1,2014-05-01T02:22:00Z,27.6250,-90.4410,15.2,255.0,14.9,-9999.0,'11111222,11111222,99999999' 
ADCP,ioos:station:wmo:42890:1,2014-05-01T02:42:00Z,27.6250,-90.4410,15.2,249.0,14.6,-9999.0,'11111222,11111222,99999999' 
ADCP,ioos:station:wmo:42890:1,2014-05-01T03:02:00Z,27.6250,-90.4410,15.2,231.0,9.6,-99999.0,'1111122,1111122,1199999999' 
ADCP,ioos:station:wmo:42890:1,2014-05-01T03:22:00Z,27.6250,-90.4410,15.2,248.0,14.4,-9999.0,'11111222,11111222,99999999' 
ADCP,ioos:station:wmo:42890:1,2014-05-01T03:42:00Z,27.6250,-90.4410,15.2,247.0,14.8,-9999.0,'11111222,11111222,99999999' 
ADCP,ioos:station:wmo:42890:1,2014-05-01T04:02:00Z,27.6250,-90.4410,15.2,236.0,16.1,-9999.0,'11111222,11111222,99999999' 
ADCP,ioos:station:wmo:42890:1,2014-05-01T04:22:00Z,27.6250,-90.4410,15.2,235.0,18.1,-9999.0,'11111222,11111222,99999999' 
ADCP,ioos:station:wmo:42890:1,2014-05-01T04:42:00Z,27.6250,-90.4410,15.2,227.0,16.6,-9999.0,'11111222,11111222,99999999' 
ADCP,ioos:station:wmo:42890:1,2014-05-01T05:02:00Z,27.6250,-90.4410,15.2,229.0,17.4,-99999.0,'1111122,1111122,1199999999' 
ADCP,ioos:station:wmo:42890:1,2014-05-01T05:22:00Z,27.6250,-90.4410,15.2,220.0,17.5,-9999.0,'11111222,11111222,99999999' 
ADCP,ioos:station:wmo:42890:1,2014-05-01T05:42:00Z,27.6250,-90.4410,15.2,224.0,18.2,-99999.0,'1111122,1111122,1199999999' 
ADCP,ioos:station:wmo:42890:1,2014-05-01T06:02:00Z,27.6250,-90.4410,15.2,225.0,18.2,-9999.0,'11111222,11111222,99999999' 
ADCP,ioos:station:wmo:42890:1,2014-05-01T06:22:00Z,27.6250,-90.4410,15.2,228.0,18.2,-9999.0,'11111222,11111222,99999999' 
ADCP,ioos:station:wmo:42890:1,2014-05-01T06:42:00Z,27.6250,-90.4410,15.2,221.0,17.4,-9999.0,'11111222,11111222,99999999' 
ADCP,ioos:station:wmo:42890:1,2014-05-01T07:02:00Z,27.6250,-90.4410,15.2,225.0,17.0,-99999.0,'1111122,1111122,1199999999' 
ADCP,ioos:station:wmo:42890:1,2014-05-01T07:22:00Z,27.6250,-90.4410,15.2,223.0,16.3,-9999.0,'11111222,11111222,99999999' 
ADCP,ioos:station:wmo:42890:1,2014-05-01T07:42:00Z,27.6250,-90.4410,15.2,221.0,15.3,-9999.0,'11111222,11111222,99999999' 
ADCP,ioos:station:wmo:42890:1,2014-05-01T08:02:00Z,27.6250,-90.4410,15.2,230.0,18.2,-9999.0,'11111222,11111222,99999999' 
ADCP,ioos:station:wmo:42890:1,2014-05-01T08:22:00Z,27.6250,-90.4410,15.2,218.0,18.4,-9999.0,'11111222,11111222,99999999' 
ADCP,ioos:station:wmo:42890:1,2014-05-01T08:42:00Z,27.6250,-90.4410,15.2,220.0,21.7,-9999.0,'11111222,11111222,99999999' 
ADCP,ioos:station:wmo:42890:1,2014-05-01T09:02:00Z,27.6250,-90.4410,15.2,210.0,19.6,-99999.0,'1111122,1111122,1199999999' 
ADCP,ioos:station:wmo:42890:1,2014-05-01T09:22:00Z,27.6250,-90.4410,15.2,208.0,19.9,-9999.0,'11111222,11111222,99999999' 
ADCP,ioos:station:wmo:42890:1,2014-05-01T09:42:00Z,27.6250,-90.4410,15.2,200.0,15.7,-9999.0,'11111222,11111222,99999999' 
ADCP,ioos:station:wmo:42890:1,2014-05-01T10:02:00Z,27.6250,-90.4410,15.2,200.0,21.3,-9999.0,'11111222,11111222,99999999' 
ADCP,ioos:station:wmo:42890:1,2014-05-01T10:22:00Z,27.6250,-90.4410,15.2,199.0,20.1,-9999.0,'11111222,11111222,99999999' 
ADCP,ioos:station:wmo:42890:1,2014-05-01T10:42:00Z,27.6250,-90.4410,15.2,197.0,19.2,-9999.0,'11111222,11111222,99999999' 
ADCP,ioos:station:wmo:42890:1,2014-05-01T11:02:00Z,27.6250,-90.4410,15.2,192.0,21.2,-99999.0,'1111122,1111122,1199999999' 
ADCP,ioos:station:wmo:42890:1,2014-05-01T11:22:00Z,27.6250,-90.4410,15.2,186.0,22.3,-9999.0,'11111222,11111222,99999999' 
ADCP,ioos:station:wmo:42890:1,2014-05-01T11:42:00Z,27.6250,-90.4410,15.2,193.0,21.1,-9999.0,'11111222,11111222,99999999' 
ADCP,ioos:station:wmo:42890:1,2014-05-01T12:02:00Z,27.6250,-90.4410,15.2,193.0,25.4,-99999.0,'1111122,1111122,1199999999' 
ADCP,ioos:station:wmo:42890:1,2014-05-01T12:22:00Z,27.6250,-90.4410,15.2,195.0,25.5,-9999.0,'11111222,11111222,99999999' 
ADCP,ioos:station:wmo:42890:1,2014-05-01T12:42:00Z,27.6250,-90.4410,15.2,201.0,25.4,-9999.0,'11111222,11111222,99999999' 
ADCP,ioos:station:wmo:42890:1,2014-05-01T13:02:00Z,27.6250,-90.4410,15.2,200.0,26.0,-99999.0,'1111122,1111122,1199999999' 
ADCP,ioos:station:wmo:42890:1,2014-05-01T13:22:00Z,27.6250,-90.4410,15.2,204.0,26.5,-9999.0,'11111222,11111222,99999999' 
ADCP,ioos:station:wmo:42890:1,2014-05-01T13:42:00Z,27.6250,-90.4410,15.2,210.0,27.9,-9999.0,'11111222,11111222,99999999' 
ADCP,ioos:station:wmo:42890:1,2014-05-01T14:02:00Z,27.6250,-90.4410,15.2,214.0,27.7,-99999.0,'1111122,1111122,1199999999' 
ADCP,ioos:station:wmo:42890:1,2014-05-01T14:22:00Z,27.6250,-90.4410,15.2,217.0,28.1,-9999.0,'11111222,11111222,99999999' 
ADCP,ioos:station:wmo:42890:1,2014-05-01T14:42:00Z,27.6250,-90.4410,15.2,216.0,27.3,-9999.0,'11111222,11111222,99999999' 
ADCP,ioos:station:wmo:42890:1,2014-05-01T15:02:00Z,27.6250,-90.4410,15.2,221.0,28.1,-99999.0,'1111122,1111122,1199999999' 
ADCP,ioos:station:wmo:42890:1,2014-05-01T15:22:00Z,27.6250,-90.4410,15.2,227.0,28.3,-9999.0,'11111222,11111222,99999999' 
ADCP,ioos:station:wmo:42890:1,2014-05-01T15:42:00Z,27.6250,-90.4410,15.2,230.0,26.6,-9999.0,'11111222,11111222,99999999' 
ADCP,ioos:station:wmo:42890:1,2014-05-01T16:02:00Z,27.6250,-90.4410,15.2,229.0,26.5,-99999.0,'1111122,1111122,1199999999' 
ADCP,ioos:station:wmo:42890:1,2014-05-01T16:22:00Z,27.6250,-90.4410,15.2,227.0,26.1,-9999.0,'11111222,11111222,99999999' 
ADCP,ioos:station:wmo:42890:1,2014-05-01T16:42:00Z,27.6250,-90.4410,15.2,234.0,26.9,-9999.0,'11111222,11111222,99999999' 
ADCP,ioos:station:wmo:42890:1,2014-05-01T17:02:00Z,27.6250,-90.4410,15.2,234.0,25.1,-99999.0,'1111122,1111122,1199999999' 
ADCP,ioos:station:wmo:42890:1,2014-05-01T17:22:00Z,27.6250,-90.4410,15.2,236.0,28.8,-9999.0,'11111222,11111222,99999999' 
ADCP,ioos:station:wmo:42890:1,2014-05-01T17:42:00Z,27.6250,-90.4410,15.2,235.0,28.9,-9999.0,'11111222,11111222,99999999' 
ADCP,ioos:station:wmo:42890:1,2014-05-01T18:02:00Z,27.6250,-90.4410,15.2,235.0,27.9,-99999.0,'1111122,1111122,1199999999' 
ADCP,ioos:station:wmo:42890:1,2014-05-01T18:22:00Z,27.6250,-90.4410,15.2,238.0,30.1,-9999.0,'11111222,11111222,99999999' 
ADCP,ioos:station:wmo:42890:1,2014-05-01T18:42:00Z,27.6250,-90.4410,15.2,243.0,28.9,-9999.0,'11111222,11111222,99999999' 
ADCP,ioos:station:wmo:42890:1,2014-05-01T19:02:00Z,27.6250,-90.4410,15.2,249.0,29.2,-99999.0,'1111122,1111122,1199999999' 
ADCP,ioos:station:wmo:42890:1,2014-05-01T19:22:00Z,27.6250,-90.4410,15.2,252.0,26.0,-9999.0,'11111222,11111222,99999999' 
ADCP,ioos:station:wmo:42890:1,2014-05-01T19:42:00Z,27.6250,-90.4410,15.2,261.0,24.3,-9999.0,'11111222,11111222,99999999' 
ADCP,ioos:station:wmo:42890:1,2014-05-01T20:02:00Z,27.6250,-90.4410,15.2,263.0,21.8,-99999.0,'1111122,1111122,1199999999' 
ADCP,ioos:station:wmo:42890:1,2014-05-01T20:22:00Z,27.6250,-90.4410,15.2,270.0,22.6,-9999.0,'11111222,11111222,99999999' 
ADCP,ioos:station:wmo:42890:1,2014-05-01T20:42:00Z,27.6250,-90.4410,15.2,278.0,23.7,-9999.0,'11111222,11111222,99999999' 
ADCP,ioos:station:wmo:42890:1,2014-05-01T21:02:00Z,27.6250,-90.4410,15.2,285.0,21.8,-99999.0,'1111122,1111122,1199999999' 
ADCP,ioos:station:wmo:42890:1,2014-05-01T21:22:00Z,27.6250,-90.4410,15.2,285.0,22.1,-9999.0,'11111222,11111222,99999999' 
ADCP,ioos:station:wmo:42890:1,2014-05-01T21:42:00Z,27.6250,-90.4410,15.2,286.0,19.1,-9999.0,'11111222,11111222,99999999' 
ADCP,ioos:station:wmo:42890:1,2014-05-01T22:02:00Z,27.6250,-90.4410,15.2,290.0,16.7,-99999.0,'1111122,1111122,1199999999' 
ADCP,ioos:station:wmo:42890:1,2014-05-01T22:22:00Z,27.6250,-90.4410,15.2,280.0,20.4,-9999.0,'11111222,11111222,99999999' 
ADCP,ioos:station:wmo:42890:1,2014-05-01T22:42:00Z,27.6250,-90.4410,15.2,286.0,19.9,-9999.0,'11111222,11111222,99999999' 
ADCP,ioos:station:wmo:42890:1,2014-05-01T23:02:00Z,27.6250,-90.4410,15.2,287.0,20.1,-99999.0,'1111122,1111122,1199999999' 
ADCP,ioos:station:wmo:42890:1,2014-05-01T23:22:00Z,27.6250,-90.4410,15.2,298.0,19.6,-9999.0,'11111222,11111222,99999999' 
ADCP,ioos:station:wmo:42890:1,2014-05-01T23:42:00Z,27.6250,-90.4410,15.2,287.0,22.7,-9999.0,'11111222,11111222,99999999' 
ADCP,ioos:station:wmo:42890:1,2014-05-02T00:02:00Z,27.6250,-90.4410,15.2,266.0,29.2,-99999.0,'1111122,1111122,1199999999' 
ADCP,ioos:station:wmo:42890:1,2014-05-02T00:22:00Z,27.6250,-90.4410,15.2,261.0,20.8,-9999.0,'11111222,11111222,99999999' 
ADCP,ioos:station:wmo:42890:1,2014-05-02T00:42:00Z,27.6250,-90.4410,15.2,274.0,10.3,-9999.0,'11111222,11111222,99999999' 
ADCP,ioos:station:wmo:42890:1,2014-05-02T01:02:00Z,27.6250,-90.4410,15.2,265.0,11.0,-99999.0,'1111122,1111122,1199999999' 
ADCP,ioos:station:wmo:42890:1,2014-05-02T01:22:00Z,27.6250,-90.4410,15.2,286.0,8.9,-9999.0,'11133222,11111222,99999999' 
ADCP,ioos:station:wmo:42890:1,2014-05-02T01:42:00Z,27.6250,-90.4410,15.2,273.0,10.5,-9999.0,'11111222,11111222,99999999' 
ADCP,ioos:station:wmo:42890:1,2014-05-02T02:02:00Z,27.6250,-90.4410,15.2,282.0,8.9,-99999.0,'1111122,1111122,1199999999' 
ADCP,ioos:station:wmo:42890:1,2014-05-02T02:22:00Z,27.6250,-90.4410,15.2,281.0,12.3,-9999.0,'11111222,11111222,99999999' 
ADCP,ioos:station:wmo:42890:1,2014-05-02T02:42:00Z,27.6250,-90.4410,15.2,288.0,11.9,-9999.0,'11111222,11111222,99999999' 
ADCP,ioos:station:wmo:42890:1,2014-05-02T03:02:00Z,27.6250,-90.4410,15.2,280.0,12.5,-99999.0,'1111122,1111122,1199999999' 
ADCP,ioos:station:wmo:42890:1,2014-05-02T03:22:00Z,27.6250,-90.4410,15.2,277.0,10.5,-9999.0,'11111222,11111222,99999999' 
ADCP,ioos:station:wmo:42890:1,2014-05-02T03:42:00Z,27.6250,-90.4410,15.2,287.0,12.6,-9999.0,'11111222,11111222,99999999' 
ADCP,ioos:station:wmo:42890:1,2014-05-02T04:02:00Z,27.6250,-90.4410,15.2,271.0,14.0,-99999.0,'1111122,1111122,1199999999' 
ADCP,ioos:station:wmo:42890:1,2014-05-02T04:22:00Z,27.6250,-90.4410,15.2,271.0,11.5,-9999.0,'11111222,11111222,99999999' 
ADCP,ioos:station:wmo:42890:1,2014-05-02T04:42:00Z,27.6250,-90.4410,15.2,272.0,9.5,-9999.0,'11133222,11111222,99999999' 
ADCP,ioos:station:wmo:42890:1,2014-05-02T05:02:00Z,27.6250,-90.4410,15.2,254.0,10.8,-99999.0,'1111122,1111122,1199999999' 
ADCP,ioos:station:wmo:42890:1,2014-05-02T05:22:00Z,27.6250,-90.4410,15.2,247.0,9.1,-9999.0,'11133222,11111222,99999999' 
ADCP,ioos:station:wmo:42890:1,2014-05-02T05:42:00Z,27.6250,-90.4410,15.2,225.0,7.4,-9999.0,'11133222,11111222,99999999' 
ADCP,ioos:station:wmo:42890:1,2014-05-02T06:02:00Z,27.6250,-90.4410,15.2,217.0,5.6,-99999.0,'1111122,1111122,1199999999' 
ADCP,ioos:station:wmo:42890:1,2014-05-02T06:22:00Z,27.6250,-90.4410,15.2,205.0,8.0,-9999.0,'11133222,11111222,99999999' 
ADCP,ioos:station:wmo:42890:1,2014-05-02T06:42:00Z,27.6250,-90.4410,15.2,205.0,9.1,-9999.0,'11133222,11111222,99999999' 
ADCP,ioos:station:wmo:42890:1,2014-05-02T07:02:00Z,27.6250,-90.4410,15.2,189.0,8.2,-99999.0,'1111122,1111122,1199999999' 
ADCP,ioos:station:wmo:42890:1,2014-05-02T07:22:00Z,27.6250,-90.4410,15.2,191.0,11.5,-9999.0,'11111222,11111222,99999999' 
ADCP,ioos:station:wmo:42890:1,2014-05-02T07:42:00Z,27.6250,-90.4410,15.2,196.0,11.3,-9999.0,'11111222,11111222,99999999' 
ADCP,ioos:station:wmo:42890:1,2014-05-02T08:02:00Z,27.6250,-90.4410,15.2,203.0,13.4,-9999.0,'11111222,11111222,99999999' 
ADCP,ioos:station:wmo:42890:1,2014-05-02T08:22:00Z,27.6250,-90.4410,15.2,213.0,14.9,-9999.0,'11111222,11111222,99999999' 
ADCP,ioos:station:wmo:42890:1,2014-05-02T08:42:00Z,27.6250,-90.4410,15.2,206.0,16.2,-9999.0,'11111222,11111222,99999999' 
ADCP,ioos:station:wmo:42890:1,2014-05-02T09:02:00Z,27.6250,-90.4410,15.2,191.0,12.3,-99999.0,'1111122,1111122,1199999999' 
ADCP,ioos:station:wmo:42890:1,2014-05-02T09:22:00Z,27.6250,-90.4410,15.2,202.0,14.1,-9999.0,'11111222,11111222,99999999' 
ADCP,ioos:station:wmo:42890:1,2014-05-02T09:42:00Z,27.6250,-90.4410,15.2,198.0,15.9,-9999.0,'11111222,11111222,99999999' 
ADCP,ioos:station:wmo:42890:1,2014-05-02T10:02:00Z,27.6250,-90.4410,15.2,189.0,16.6,-99999.0,'1111122,1111122,1199999999' 
ADCP,ioos:station:wmo:42890:1,2014-05-02T10:22:00Z,27.6250,-90.4410,15.2,181.0,16.6,-9999.0,'11111222,11111222,99999999' 
ADCP,ioos:station:wmo:42890:1,2014-05-02T10:42:00Z,27.6250,-90.4410,15.2,168.0,18.7,-9999.0,'11111222,11111222,99999999' 
ADCP,ioos:station:wmo:42890:1,2014-05-02T11:02:00Z,27.6250,-90.4410,15.2,171.0,21.9,-99999.0,'1111122,1111122,1199999999' 
ADCP,ioos:station:wmo:42890:1,2014-05-02T11:22:00Z,27.6250,-90.4410,15.2,163.0,21.6,-9999.0,'11111222,11111222,99999999' 
ADCP,ioos:station:wmo:42890:1,2014-05-02T11:42:00Z,27.6250,-90.4410,15.2,170.0,20.6,-9999.0,'11111222,11111222,99999999' 
ADCP,ioos:station:wmo:42890:1,2014-05-02T12:02:00Z,27.6250,-90.4410,15.2,170.0,22.8,-99999.0,'1111122,1111122,1199999999' 
ADCP,ioos:station:wmo:42890:1,2014-05-02T12:22:00Z,27.6250,-90.4410,15.2,162.0,23.9,-9999.0,'11111222,11111222,99999999' 
ADCP,ioos:station:wmo:42890:1,2014-05-02T12:42:00Z,27.6250,-90.4410,15.2,167.0,22.6,-9999.0,'11111222,11111222,99999999' 
ADCP,ioos:station:wmo:42890:1,2014-05-02T13:02:00Z,27.6250,-90.4410,15.2,165.0,21.0,-99999.0,'1111122,1111122,1199999999' 
ADCP,ioos:station:wmo:42890:1,2014-05-02T13:22:00Z,27.6250,-90.4410,15.2,175.0,21.5,-9999.0,'11111222,11111222,99999999' 
ADCP,ioos:station:wmo:42890:1,2014-05-02T13:42:00Z,27.6250,-90.4410,15.2,176.0,20.9,-9999.0,'11111222,11111222,99999999' 
ADCP,ioos:station:wmo:42890:1,2014-05-02T14:02:00Z,27.6250,-90.4410,15.2,182.0,22.0,-99999.0,'1111122,1111122,1199999999' 
ADCP,ioos:station:wmo:42890:1,2014-05-02T14:22:00Z,27.6250,-90.4410,15.2,185.0,21.9,-9999.0,'11111222,11111222,99999999' 
ADCP,ioos:station:wmo:42890:1,2014-05-02T14:42:00Z,27.6250,-90.4410,15.2,185.0,21.0,-9999.0,'11111222,11111222,99999999' 
ADCP,ioos:station:wmo:42890:1,2014-05-02T15:02:00Z,27.6250,-90.4410,15.2,183.0,21.4,-99999.0,'1111122,1111122,1199999999' 
ADCP,ioos:station:wmo:42890:1,2014-05-02T15:22:00Z,27.6250,-90.4410,15.2,182.0,22.6,-9999.0,'11111222,11111222,99999999' 
ADCP,ioos:station:wmo:42890:1,2014-05-02T15:42:00Z,27.6250,-90.4410,15.2,189.0,22.2,-9999.0,'11111222,11111222,99999999' 
ADCP,ioos:station:wmo:42890:1,2014-05-02T16:02:00Z,27.6250,-90.4410,15.2,193.0,23.1,-99999.0,'1111122,1111122,1199999999' 
ADCP,ioos:station:wmo:42890:1,2014-05-02T16:22:00Z,27.6250,-90.4410,15.2,202.0,24.8,-9999.0,'11111222,11111222,99999999' 
ADCP,ioos:station:wmo:42890:1,2014-05-02T16:42:00Z,27.6250,-90.4410,15.2,212.0,26.3,-9999.0,'11111222,11111222,99999999' 
ADCP,ioos:station:wmo:42890:1,2014-05-02T17:02:00Z,27.6250,-90.4410,15.2,213.0,25.9,-99999.0,'1111122,1111122,1199999999' 
ADCP,ioos:station:wmo:42890:1,2014-05-02T17:22:00Z,27.6250,-90.4410,15.2,218.0,28.8,-9999.0,'11111222,11111222,99999999' 
ADCP,ioos:station:wmo:42890:1,2014-05-02T17:42:00Z,27.6250,-90.4410,15.2,219.0,29.4,-9999.0,'11111222,11111222,99999999' 
ADCP,ioos:station:wmo:42890:1,2014-05-02T18:02:00Z,27.6250,-90.4410,15.2,223.0,28.8,-99999.0,'1111122,1111122,1199999999' 
ADCP,ioos:station:wmo:42890:1,2014-05-02T18:22:00Z,27.6250,-90.4410,15.2,223.0,25.5,-9999.0,'11111222,11111222,99999999' 
ADCP,ioos:station:wmo:42890:1,2014-05-02T18:42:00Z,27.6250,-90.4410,15.2,221.0,23.6,-9999.0,'11111222,11111222,99999999' 
ADCP,ioos:station:wmo:42890:1,2014-05-02T19:02:00Z,27.6250,-90.4410,15.2,222.0,24.7,-9999.0,'11111222,11111222,99999999' 
ADCP,ioos:station:wmo:42890:1,2014-05-02T19:22:00Z,27.6250,-90.4410,15.2,230.0,26.8,-9999.0,'11111222,11111222,99999999' 
ADCP,ioos:station:wmo:42890:1,2014-05-02T19:42:00Z,27.6250,-90.4410,15.2,228.0,25.0,-9999.0,'11111222,11111222,99999999' 
ADCP,ioos:station:wmo:42890:1,2014-05-02T20:02:00Z,27.6250,-90.4410,15.2,233.0,26.0,-99999.0,'1111122,1111122,1199999999' 
ADCP,ioos:station:wmo:42890:1,2014-05-02T20:22:00Z,27.6250,-90.4410,15.2,232.0,24.6,-9999.0,'11111222,11111222,99999999' 
ADCP,ioos:station:wmo:42890:1,2014-05-02T20:42:00Z,27.6250,-90.4410,15.2,233.0,23.2,-9999.0,'11111222,11111222,99999999' 
ADCP,ioos:station:wmo:42890:1,2014-05-02T21:02:00Z,27.6250,-90.4410,15.2,237.0,24.2,-99999.0,'1111122,1111122,1199999999' 
ADCP,ioos:station:wmo:42890:1,2014-05-02T21:22:00Z,27.6250,-90.4410,15.2,238.0,23.5,-9999.0,'11111222,11111222,99999999' 
ADCP,ioos:station:wmo:42890:1,2014-05-02T21:42:00Z,27.6250,-90.4410,15.2,246.0,25.3,-9999.0,'11111222,11111222,99999999' 
ADCP,ioos:station:wmo:42890:1,2014-05-02T22:02:00Z,27.6250,-90.4410,15.2,254.0,27.0,-99999.0,'1111122,1111122,1199999999' 
ADCP,ioos:station:wmo:42890:1,2014-05-02T22:22:00Z,27.6250,-90.4410,15.2,254.0,17.2,-9999.0,'11111222,11111222,99999999' 
ADCP,ioos:station:wmo:42890:1,2014-05-02T22:42:00Z,27.6250,-90.4410,15.2,257.0,24.7,-9999.0,'11111222,11111222,99999999' 
ADCP,ioos:station:wmo:42890:1,2014-05-02T23:02:00Z,27.6250,-90.4410,15.2,263.0,24.4,-99999.0,'1111122,1111122,1199999999' 
ADCP,ioos:station:wmo:42890:1,2014-05-02T23:22:00Z,27.6250,-90.4410,15.2,258.0,30.2,-9999.0,'11111222,11111222,99999999' 
ADCP,ioos:station:wmo:42890:1,2014-05-02T23:42:00Z,27.6250,-90.4410,15.2,259.0,28.7,-99999.0,'1111122,1111122,1199999999' 
ADCP,ioos:station:wmo:42890:1,2014-05-03T00:02:00Z,27.6250,-90.4410,15.2,258.0,24.9,-9999.0,'11111222,11111222,99999999' 
ADCP,ioos:station:wmo:42890:1,2014-05-03T00:22:00Z,27.6250,-90.4410,15.2,258.0,21.1,-9999.0,'11111222,11111222,99999999' 
ADCP,ioos:station:wmo:42890:1,2014-05-03T00:42:00Z,27.6250,-90.4410,15.2,267.0,16.9,-9999.0,'11111222,11111222,99999999' 
ADCP,ioos:station:wmo:42890:1,2014-05-03T01:02:00Z,27.6250,-90.4410,15.2,268.0,17.1,-99999.0,'1111122,1111122,1199999999' 
ADCP,ioos:station:wmo:42890:1,2014-05-03T01:22:00Z,27.6250,-90.4410,15.2,260.0,13.9,-9999.0,'11111222,11111222,99999999' 
ADCP,ioos:station:wmo:42890:1,2014-05-03T01:42:00Z,27.6250,-90.4410,15.2,270.0,14.9,-99999.0,'1111122,1111122,1199999999' 
ADCP,ioos:station:wmo:42890:1,2014-05-03T02:02:00Z,27.6250,-90.4410,15.2,280.0,12.0,-9999.0,'11111222,11111222,99999999' 
ADCP,ioos:station:wmo:42890:1,2014-05-03T02:22:00Z,27.6250,-90.4410,15.2,279.0,14.6,-9999.0,'11111222,11111222,99999999' 
ADCP,ioos:station:wmo:42890:1,2014-05-03T02:42:00Z,27.6250,-90.4410,15.2,292.0,11.1,-9999.0,'11111222,11111222,99999999' 
ADCP,ioos:station:wmo:42890:1,2014-05-03T03:02:00Z,27.6250,-90.4410,15.2,275.0,18.7,-99999.0,'1111122,1111122,1199999999' 
ADCP,ioos:station:wmo:42890:1,2014-05-03T03:22:00Z,27.6250,-90.4410,15.2,273.0,16.8,-9999.0,'11111222,11111222,99999999' 
ADCP,ioos:station:wmo:42890:1,2014-05-03T03:42:00Z,27.6250,-90.4410,15.2,283.0,12.8,-9999.0,'11111222,11111222,99999999' 
ADCP,ioos:station:wmo:42890:1,2014-05-03T04:02:00Z,27.6250,-90.4410,15.2,283.0,13.4,-99999.0,'1111122,1111122,1199999999' 
ADCP,ioos:station:wmo:42890:1,2014-05-03T04:22:00Z,27.6250,-90.4410,15.2,284.0,12.8,-9999.0,'11111222,11111222,99999999' 
ADCP,ioos:station:wmo:42890:1,2014-05-03T04:42:00Z,27.6250,-90.4410,15.2,290.0,10.8,-9999.0,'11111222,11111222,99999999' 
ADCP,ioos:station:wmo:42890:1,2014-05-03T05:02:00Z,27.6250,-90.4410,15.2,283.0,11.2,-99999.0,'1111122,1111122,1199999999' 
ADCP,ioos:station:wmo:42890:1,2014-05-03T05:22:00Z,27.6250,-90.4410,15.2,276.0,36.0,-9999.0,'11111222,11111222,99999999' 
ADCP,ioos:station:wmo:42890:1,2014-05-03T05:42:00Z,27.6250,-90.4410,15.2,291.0,16.4,-9999.0,'11111222,11111222,99999999' 
ADCP,ioos:station:wmo:42890:1,2014-05-03T06:02:00Z,27.6250,-90.4410,15.2,282.0,13.2,-9999.0,'11111222,11111222,99999999' 
ADCP,ioos:station:wmo:42890:1,2014-05-03T06:22:00Z,27.6250,-90.4410,15.2,290.0,9.6,-9999.0,'11133222,11111222,99999999' 
ADCP,ioos:station:wmo:42890:1,2014-05-03T06:42:00Z,27.6250,-90.4410,15.2,295.0,6.8,-9999.0,'11133222,11111222,99999999' 
ADCP,ioos:station:wmo:42890:1,2014-05-03T07:02:00Z,27.6250,-90.4410,15.2,284.0,8.9,-99999.0,'1111122,1111122,1199999999' 
ADCP,ioos:station:wmo:42890:1,2014-05-03T07:22:00Z,27.6250,-90.4410,15.2,272.0,7.6,-9999.0,'11133222,11111222,99999999' 
ADCP,ioos:station:wmo:42890:1,2014-05-03T07:42:00Z,27.6250,-90.4410,15.2,260.0,11.1,-9999.0,'11111222,11111222,99999999' 
ADCP,ioos:station:wmo:42890:1,2014-05-03T08:02:00Z,27.6250,-90.4410,15.2,234.0,9.4,-99999.0,'1111122,1111122,1199999999' 
ADCP,ioos:station:wmo:42890:1,2014-05-03T08:22:00Z,27.6250,-90.4410,15.2,228.0,13.0,-9999.0,'11111222,11111222,99999999' 
ADCP,ioos:station:wmo:42890:1,2014-05-03T08:42:00Z,27.6250,-90.4410,15.2,223.0,14.1,-9999.0,'11111222,11111222,99999999' 
ADCP,ioos:station:wmo:42890:1,2014-05-03T09:02:00Z,27.6250,-90.4410,15.2,215.0,16.9,-99999.0,'1111122,1111122,1199999999' 
ADCP,ioos:station:wmo:42890:1,2014-05-03T09:22:00Z,27.6250,-90.4410,15.2,225.0,20.2,-9999.0,'11111222,11111222,99999999' 
ADCP,ioos:station:wmo:42890:1,2014-05-03T09:42:00Z,27.6250,-90.4410,15.2,233.0,21.3,-9999.0,'11111222,11111222,99999999' 
ADCP,ioos:station:wmo:42890:1,2014-05-03T10:02:00Z,27.6250,-90.4410,15.2,228.0,16.1,-99999.0,'1111122,1111122,1199999999' 
ADCP,ioos:station:wmo:42890:1,2014-05-03T10:22:00Z,27.6250,-90.4410,15.2,230.0,18.8,-9999.0,'11111222,11111222,99999999' 
ADCP,ioos:station:wmo:42890:1,2014-05-03T10:42:00Z,27.6250,-90.4410,15.2,229.0,16.7,-9999.0,'11111222,11111222,99999999' 
ADCP,ioos:station:wmo:42890:1,2014-05-03T11:02:00Z,27.6250,-90.4410,15.2,223.0,13.0,-99999.0,'1111122,1111122,1199999999' 
ADCP,ioos:station:wmo:42890:1,2014-05-03T11:22:00Z,27.6250,-90.4410,15.2,219.0,11.9,-9999.0,'11111222,11111222,99999999' 
ADCP,ioos:station:wmo:42890:1,2014-05-03T11:42:00Z,27.6250,-90.4410,15.2,219.0,14.6,-9999.0,'11111222,11111222,99999999' 
ADCP,ioos:station:wmo:42890:1,2014-05-03T12:02:00Z,27.6250,-90.4410,15.2,212.0,17.0,-99999.0,'1111122,1111122,1199999999' 
ADCP,ioos:station:wmo:42890:1,2014-05-03T12:22:00Z,27.6250,-90.4410,15.2,217.0,18.8,-9999.0,'11111222,11111222,99999999' 
ADCP,ioos:station:wmo:42890:1,2014-05-03T12:42:00Z,27.6250,-90.4410,15.2,213.0,19.6,-9999.0,'11111222,11111222,99999999' 
ADCP,ioos:station:wmo:42890:1,2014-05-03T13:02:00Z,27.6250,-90.4410,15.2,202.0,19.0,-99999.0,'1111122,1111122,1199999999' 
ADCP,ioos:station:wmo:42890:1,2014-05-03T13:22:00Z,27.6250,-90.4410,15.2,200.0,19.1,-9999.0,'11111222,11111222,99999999' 
ADCP,ioos:station:wmo:42890:1,2014-05-03T13:42:00Z,27.6250,-90.4410,15.2,197.0,18.8,-9999.0,'11111222,11111222,99999999' 
ADCP,ioos:station:wmo:42890:1,2014-05-03T14:02:00Z,27.6250,-90.4410,15.2,202.0,20.9,-99999.0,'1111122,1111122,1199999999' 
ADCP,ioos:station:wmo:42890:1,2014-05-03T14:22:00Z,27.6250,-90.4410,15.2,212.0,24.6,-9999.0,'11111222,11111222,99999999' 
ADCP,ioos:station:wmo:42890:1,2014-05-03T14:42:00Z,27.6250,-90.4410,15.2,205.0,22.6,-9999.0,'11111222,11111222,99999999' 
ADCP,ioos:station:wmo:42890:1,2014-05-03T15:02:00Z,27.6250,-90.4410,15.2,203.0,23.6,-99999.0,'1111122,1111122,1199999999' 
ADCP,ioos:station:wmo:42890:1,2014-05-03T15:22:00Z,27.6250,-90.4410,15.2,197.0,21.1,-9999.0,'11111222,11111222,99999999' 
ADCP,ioos:station:wmo:42890:1,2014-05-03T15:42:00Z,27.6250,-90.4410,15.2,197.0,21.8,-9999.0,'11111222,11111222,99999999' 
ADCP,ioos:station:wmo:42890:1,2014-05-03T16:02:00Z,27.6250,-90.4410,15.2,186.0,20.3,-99999.0,'1111122,1111122,1199999999' 
ADCP,ioos:station:wmo:42890:1,2014-05-03T16:22:00Z,27.6250,-90.4410,15.2,189.0,20.0,-9999.0,'11111222,11111222,99999999' 
ADCP,ioos:station:wmo:42890:1,2014-05-03T16:42:00Z,27.6250,-90.4410,15.2,174.0,18.4,-9999.0,'11111222,11111222,99999999' 